Location: Unspecified
(43.4680°N, 87.1740°E)
Time: 03:55:50
(UTC+00:00)

Okean 2 - Pass Details

Date: 29 July 2021
Orbit: 558 x 577 km, 82.5° (Epoch: 27 September)

Event Time Altitude Azimuth Distance (km) Brightness Sun altitude
Rises 20:17:52 0° 350° (N) 2,802 7.7 -22.2°
Reaches altitude 10° 20:20:04 10° 349° (N) 1,899 6.7 -21.9°
Maximum altitude 20:24:15 79° 264° (W) 594 3.3 -21.5°
Enters shadow 20:24:40 69° 206° (SSW) 619 3.2 -21.5°
